ICEYE-X7

导读

ICEYE-X7是芬兰企业ICEYE推出的合成孔径雷达(SAR)卫星,于2020年9月28日发射入轨,归属全球最大SAR卫星星座,运行于倾角97.7°的太阳同步轨道,轨道周期约96分钟。它搭载X波段有源相控阵雷达,可不分昼夜、不受天气影响获取地球表面高分辨率观测数据,能近实时为政府及商业用户提供精准地理信息,支撑灾害监测、资源勘探等多类应用,助力扩展星座重访观测能力,服务全球地球观测任务。

基本信息
目录编号:
46496
目录名称:
ICEYE-X7
国际标识:
2020-068L
轨道中心:
EARTH
卫星名称:
ICEYE-X7
卫星全名:
--
卫星状态:
在轨 (已飞行2174 天)
发射日期:
2020-09-28 UTC
国别 :
(FI)
星等 :
--
轨道信息
数据来源 国际轨道数据
星历时间: 2026-09-11T00:27:36+0800
10小时前
查看轨道信息
半长轴: 6844.659km
偏心率: 0.0008455
轨道倾角: 97.758°
近地点辐角 37.926°
升交点赤经 224.243°
平近点角 322.258°
近地点: 460.734km
远地点: 472.31km
周期: 93.926分钟
每日圈数: 15.331164
详细信息
使用方式:
暂无
2D轨道图
3D轨道图
轨道高度分析图
轨道倾角分析图
轨道综合分析图
查看轨道综合分析图
交会数据列表
事件ID 空间交会对象 最接近时刻(TCA) 交会距离 交会风险概率(CRP) 交会风险指数(CRI) 操作
CDM_260912-073904-649605-327324
ICEYE-X7 (46496)
2026-09-12T
07:39:55+0000
0.997 km
远距离
2.739141E-5 中风险 0.64
CDM_260911-144904-649606-868424
ICEYE-X7 (46496)
2026-09-11T
14:49:06+0000
0.956 km
远距离
2.678066E-5 中风险 0.64
CDM_260903-232004-649606-041722
ICEYE-X7 (46496)
2026-09-03T
23:20:26+0000
1.443 km
极远距离
6.208797E-6 低风险 0.51
CDM_260911-064704-649606-819522
ICEYE-X7 (46496)
2026-09-11T
06:47:28+0000
1.485 km
极远距离
6.082259E-6 低风险 0.51
CDM_260911-144904-649606-581221
ICEYE-X7 (46496)
2026-09-11T
14:49:42+0000
1.519 km
极远距离
5.782943E-6 低风险 0.5
CDM_260913-071204-649606-640622
ICEYE-X7 (46496)
2026-09-13T
07:12:43+0000
1.589 km
极远距离
5.53516E-6 低风险 0.5
CDM_260911-144604-649606-811422
ICEYE-X7 (46496)
2026-09-11T
14:46:24+0000
1.049 km
极远距离
5.127375E-6 低风险 0.49
CDM_260912-202204-649606-818622
ICEYE-X7 (46496)
2026-09-12T
20:22:56+0000
1.598 km
极远距离
4.948028E-6 低风险 0.49
CDM_260911-143604-649606-563822
ICEYE-X7 (46496)
2026-09-11T
14:36:07+0000
1.502 km
极远距离
4.907085E-6 低风险 0.49
CDM_260913-065604-649606-630622
ICEYE-X7 (46496)
OBJECT P (66306)
2026-09-13T
06:56:14+0000
1.668 km
极远距离
4.46738E-6 低风险 0.48
与全量物体交会距离演化趋势
与全量物体交会风险概率演化趋势